Regional Weather Roundup
Issued by NWS

Home | Current Version | Previous Version | Graphics & Text | Print | Product List | Glossary On
Versions: 1 2 3 4 5 6 7 8 9 10 11 12 13 14 15 16 17 18 19 20 21 22 23 24 25 26 27 28 29 30 31 32 33 34 35 36 37 38 39 40 41 42 43 44 45 46 47 48 49 50
000
ASUS43 KMPX 271801
RWRMN
WEATHER ROUNDUP FOR MINNESOTA
NATIONAL WEATHER SERVICE TWIN CITIES/CHANHASSEN MN
1200 PM CST FRI FEB 27 2015


NOTE: "FAIR" INDICATES FEW OR NO CLOUDS BELOW 12,000 FEET WITH NO
SIGNIFICANT WEATHER AND/OR OBSTRUCTIONS TO VISIBILITY. N/A MEANS
CURRENT SKY AND/OR WEATHER CONDITIONS ARE NOT AVAILABLE.

MNZ060>063-068>070-271900-
   Twin Cities Metro

CITY           SKY/WX    TMP DP  RH WIND       PRES   REMARKS
TWIN CITIES    SUNNY     11  -3  53 SW8       30.56S WCI  -1
6HR MIN TEMP:  -6; 6HR MAX TEMP:  11;

ST PAUL        SUNNY     12  -3  51 SW8       30.58S WCI   0
CRYSTAL        FAIR      13  -2  51 W12       30.55S WCI  -1
EDEN PRAIRIE   SUNNY     10  -3  55 W10G17    30.56S WCI  -4
6HR MIN TEMP: -10; 6HR MAX TEMP:  11;

SOUTH ST PAUL  SUNNY     12  -1  54 W8        30.57S WCI   0
LAKE ELMO      FAIR      12   1  62 W6        30.56S WCI   3
$$
MNZ001>005-007-008-013>017-022>024-027-028-271900-
   Northwest Minnesota

CITY           SKY/WX    TMP DP  RH WIND       PRES   REMARKS
BEMIDJI        SUNNY     10  -5  49 W10       30.40R WCI  -4
HALLOCK        SUNNY      3  -6  66 S12       30.41S WCI -13
ROSEAU         SUNNY      7  -2  66 SW12      30.38S WCI  -9
WARROAD        SUNNY      7  -6  56 SW13      30.37R WCI  -9
THIEF RVR FALL SUNNY      3  -6  66 SW8       30.42S WCI -10
CROOKSTON      SUNNY      7   1  78 SW7       30.46S WCI  -5
FOSSTON        SUNNY      7   0  72 SW13      30.43S WCI  -9
DETROIT LAKES  SUNNY     10  -2  56 SW6       30.44S WCI   1
MOORHEAD       SUNNY     10   0  61 SW8       30.49S WCI  -1
PARK RAPIDS    SUNNY     13  -4  46 W9        30.41S WCI   1
MAHNOMEN       FAIR       7  -1  71 SW9       30.44S WCI  -7
$$
MNZ006-009>011-018-025>026-271900-
   North Central Minnesota

CITY           SKY/WX    TMP DP  RH WIND       PRES   REMARKS
BAUDETTE       SUNNY     12  -6  44 SW8       30.34S WCI   0
FLAG ISLAND    SUNNY      1  -4  78 S14       30.32S WCI -17
INTL FALLS     SUNNY     12  -7  42 W8        30.36S WCI   0
6HR MIN TEMP: -21; 6HR MAX TEMP:  12;

WASKISH        SUNNY      9  -2  61 SW12      30.40R WCI  -6
BIG FORK       SUNNY     16  -8  35 SW8       30.38S WCI   5
LONGVILLE      SUNNY     12  -9  37 SW6       30.42S WCI   3
GRAND RAPIDS   SUNNY     10  -6  48 W6        30.39F WCI   1
CRANE LAKE     SUNNY     12 -11  34 W6        30.39S WCI   3
ORR            SUNNY     12 -11  34 SW9       30.34S WCI   0
COOK           SUNNY     12  -9  37 W8G16     30.37S WCI   1
WALKER         FAIR      11  -8  42 W7        30.40S WCI   1
$$
MNZ012-019>021-037-271900-
   Northeast Minnesota

CITY           SKY/WX    TMP DP  RH WIND       PRES   REMARKS
DULUTH         SUNNY     12  -8  40 W13       30.39S WCI  -3
6HR MIN TEMP: -11; 6HR MAX TEMP:  12;

ELY            SUNNY     12 -11  34 W7        30.35F WCI   2
HIBBING        SUNNY     11  -8  42 VRB7      30.39S WCI   0
EVELETH        SUNNY     12  -6  44 W8        30.39S WCI   1
DULUTH HARBOR  SUNNY     12  -2  52 SW8       30.49S WCI   1
TWO HARBORS    SUNNY     18  -2  41 MISG      30.39S
SILVER BAY     SUNNY     19  -9  27 W7        30.37F WCI  10
GRAND MARAIS     N/A     19  -5  34 W9        30.39F WCI   8
G MARAIS ARPRT SUNNY     12 -15  29 W6        30.29S WCI   3
$$
MNZ029>031-032-039>041-046>048-054>057-064-271900-
   West Central Minnesota

CITY           SKY/WX    TMP DP  RH WIND       PRES   REMARKS
FERGUS FALLS   SUNNY      9  -4  56 W7        30.53S WCI  -3
WHEATON        SUNNY      9  -2  61 SW6       30.53F WCI  -1
MORRIS         SUNNY     10   0  61 SW5       30.50F WCI   2
ALEXANDRIA     SUNNY    N/A N/A N/A SW9       30.47S
ELBOW LAKE     FAIR       4  -2  74 W9        30.50R WCI -10
WADENA         SUNNY      9  -2  61 SW7       30.45R WCI  -3
GLENWOOD       SUNNY      9  -2  61 SW10      30.49S WCI  -6
APPLETON       SUNNY     12  -2  52 SW5       30.54S WCI   4
BENSON         SUNNY      9  -2  61 W5        30.52F WCI   0
ORTONVILLE     SUNNY     10  -2  56 CALM      30.51F
MADISON        SUNNY     12   0  57 SW3       30.53S
WILLMAR        FAIR       7  -2  66 SW8       30.54S WCI  -6
$$
MNZ033>034-036-042>043-049>051-058-059-271900-
   Central Minnesota

CITY           SKY/WX    TMP DP  RH WIND       PRES   REMARKS
ST CLOUD       SUNNY     11  -3  53 W10       30.51S WCI  -3
6HR MIN TEMP:  -8; 6HR MAX TEMP:  11;

SAUK CENTRE    FAIR      10  -4  52 W8        30.49S WCI  -1
PAYNESVILLE    SUNNY      8  -6  54 SW9       30.52S WCI  -6
AITKIN         SUNNY     14  -8  37 SW8       30.44S WCI   3
PINE RIVER     SUNNY     12  -6  44 SW7       30.46R WCI   2
BRAINERD       SUNNY     10  -7  46 SW7       30.46S WCI  -1
STAPLES        SUNNY     10  -6  48 SW6       30.45S WCI   1
LONG PRAIRIE   FAIR      10  -4  52 S7        30.48S WCI   0
LITTLE FALLS   SUNNY     10  -6  48 SW5       30.50S WCI   2
LITCHFIELD     SUNNY      9  -2  61 W8        30.54S WCI  -4
BUFFALO        SUNNY     10  -2  56 SW7       30.55S WCI   0
MAPLE LAKE     SUNNY     13   1  57 SW8       30.54S WCI   2
$$
MNZ037-044-045-052-053-271900-
   East Central Minnesota

CITY           SKY/WX    TMP DP  RH WIND       PRES   REMARKS
PRINCETON      SUNNY     12   0  57 SW7       30.52R WCI   2
MORA           SUNNY     12  -4  48 W7        30.52R WCI   2
CAMBRIDGE      SUNNY     12   0  57 SW7       30.51S WCI   2
RUSH CITY      SUNNY     11  -3  52 SW5       30.53S WCI   3
MOOSE LAKE     SUNNY     14  -6  41 S3        30.44F
HINCKLEY       FAIR      12   0  57 SW10      30.50S WCI  -1
CLOQUET        SUNNY     12  -9  37 W10       30.42S WCI  -1
MCGREGOR       SUNNY     14  -4  44 W7        30.45S WCI   4
$$
MNZ071>073-080-081-089-090-097-098-271900-
   Southwest Minnesota

CITY           SKY/WX    TMP DP  RH WIND       PRES   REMARKS
MONTEVIDEO     SUNNY     14   1  57 W3        30.55S
GRANITE FALLS  SUNNY      9  -1  64 SW5       30.56F WCI   1
CANBY          SUNNY     11  -1  57 SW9       30.53F WCI  -2
MARSHALL       SUNNY      9  -4  56 W12       30.54F WCI  -6
REDWOOD FALLS  SUNNY      8  -4  58 W9        30.56S WCI  -5
OLIVIA         SUNNY      9   0  66 SW8       30.54S WCI  -4
PIPESTONE      SUNNY      7  -2  66 W9        30.48F WCI  -7
WINDOM         SUNNY      9   0  66 W10       30.52F WCI  -6
WORTHINGTON    SUNNY     25  -6  26 W10       30.53F WCI  15
JACKSON        SUNNY      9   0  66 W12       30.53S WCI  -6
TRACY          SUNNY     11  -1  56 W8        30.53S WCI   0
SLAYTON        SUNNY      7  -4  61 W9        30.51S WCI  -7
$$
MNZ065>067-074>077-082>085-091>093-271900-
   South Central Minnesota

CITY           SKY/WX    TMP DP  RH WIND       PRES   REMARKS
MANKATO        SUNNY      7  -6  56 SW8       30.57S WCI  -6
NEW ULM        SUNNY      7  -4  61 W8        30.57S WCI  -6
ST JAMES       SUNNY      9  -2  61 SW7       30.58S WCI  -3
FAIRMONT       SUNNY      9  -2  61 W9        30.55S WCI  -5
GLENCOE        SUNNY      9   1  67 W7        30.56S WCI  -2
FARIBAULT      SUNNY      9  -2  61 SW8       30.57R WCI  -4
OWATONNA       SUNNY      5  -2  72 SW8       30.56S WCI  -8
WASECA         SUNNY      3   0  85 SW7       30.58S WCI  -9
ALBERT LEA     SUNNY      5  -2  72 W6        30.55S WCI  -6
$$
MNZ078>079-086>088-094>096-271900-
   Southeast Minnesota

CITY           SKY/WX    TMP DP  RH WIND       PRES   REMARKS
ROCHESTER      SUNNY      2  -4  76 SW9       30.55R WCI -13
6HR MIN TEMP: -16; 6HR MAX TEMP:   2;

RED WING       SUNNY     10  -4  52 W10       30.58R WCI  -3
STANTON        SUNNY      9  -2  60 SW8       30.57R WCI  -3
DODGE CENTER   SUNNY      3  -2  78 W9        30.54R WCI -11
WINONA         SUNNY     12  -4  48 CALM      30.62S
AUSTIN         SUNNY      5  -6  61 W3        30.55S
PRESTON        SUNNY      3  -6  65 W10       30.56S WCI -12
$$
ABBREVIATIONS USED IN REMARKS
   TC - TEMPERATURES IN CELSIUS
  WCI - WIND CHILL INDEX
   HX - HEAT INDEX
  VSB - VISIBILITY
$$


USA.gov is the U.S. government's official web portal to all federal, state and local government web resources and services.